contact:dominique.lefevre@mio.osupytheas.fr, maurice.libes@osupytheas.fr, didier.mallarino@osupytheas.fr
Project:EMSO http://www.emso-fr.org/EMSO-France
Depth: 2436.0 m
Title:EMSO Ligure Ouest : Data MII capteur MICROCAT
DateTime_Computer,Latitude,Longitude,Temperature,Conductivity,Pressure,DateTime_Instrument
DateTime_Computer,Latitude,Longitude,degC,S m-1,dbar,DateTime_Instrument
2022-09-30T00:02:48Z,42.805,6.029,13.3045,4.60084,2470.577,2022-9-30T02:04:41Z
2022-09-30T00:05:51Z,42.805,6.029,13.3056,4.60083,2470.591,2022-9-30T02:07:45Z
2022-09-30T00:08:54Z,42.805,6.029,13.3042,4.60084,2470.567,2022-9-30T02:10:48Z
2022-09-30T00:11:57Z,42.805,6.029,13.3068,4.60077,2470.553,2022-9-30T02:13:51Z
2022-09-30T00:15:00Z,42.805,6.029,13.3035,4.60074,2470.553,2022-9-30T02:16:54Z
2022-09-30T00:18:03Z,42.805,6.029,13.3045,4.60090,2470.577,2022-9-30T02:19:57Z
2022-09-30T00:21:06Z,42.805,6.029,13.3044,4.60088,2470.577,2022-9-30T02:23:00Z
2022-09-30T00:24:10Z,42.805,6.029,13.3026,4.60088,2470.577,2022-9-30T02:26:03Z
2022-09-30T00:27:13Z,42.805,6.029,13.3043,4.60080,2470.553,2022-9-30T02:29:06Z
2022-09-30T00:30:16Z,42.805,6.029,13.3056,4.60083,2470.567,2022-9-30T02:32:10Z
2022-09-30T00:33:19Z,42.805,6.029,13.3069,4.60097,2470.6,2022-9-30T02:35:13Z
2022-09-30T00:36:22Z,42.805,6.029,13.3041,4.60097,2470.6,2022-9-30T02:38:16Z
2022-09-30T00:39:25Z,42.805,6.029,13.3046,4.60071,2470.567,2022-9-30T02:41:19Z
2022-09-30T00:42:28Z,42.805,6.029,13.3040,4.60079,2470.591,2022-9-30T02:44:22Z
2022-09-30T00:45:31Z,42.805,6.029,13.3038,4.60095,2470.544,2022-9-30T02:47:25Z
2022-09-30T00:48:35Z,42.805,6.029,13.3055,4.60135,2470.553,2022-9-30T02:50:28Z
2022-09-30T00:51:38Z,42.805,6.029,13.3036,4.60101,2470.577,2022-9-30T02:53:31Z
2022-09-30T00:54:41Z,42.805,6.029,13.3076,4.60112,2470.567,2022-9-30T02:56:34Z
2022-09-30T00:57:44Z,42.805,6.029,13.3043,4.60077,2470.567,2022-9-30T02:59:38Z
2022-09-30T01:00:47Z,42.805,6.029,13.3087,4.60087,2470.591,2022-9-30T03:02:41Z
2022-09-30T01:03:50Z,42.805,6.029,13.3076,4.60094,2470.544,2022-9-30T03:05:44Z
2022-09-30T01:06:53Z,42.805,6.029,13.3061,4.60098,2470.507,2022-9-30T03:08:47Z
2022-09-30T01:09:56Z,42.805,6.029,13.3068,4.60088,2470.577,2022-9-30T03:11:50Z
2022-09-30T01:12:59Z,42.805,6.029,13.3069,4.60087,2470.544,2022-9-30T03:14:53Z
2022-09-30T01:16:03Z,42.805,6.029,13.3067,4.60078,2470.507,2022-9-30T03:17:56Z
2022-09-30T01:19:06Z,42.805,6.029,13.3043,4.60081,2470.52,2022-9-30T03:20:59Z
2022-09-30T01:22:09Z,42.805,6.029,13.3041,4.60109,2470.544,2022-9-30T03:24:03Z
2022-09-30T01:25:12Z,42.805,6.029,13.3058,4.60079,2470.544,2022-9-30T03:27:06Z
2022-09-30T01:28:15Z,42.805,6.029,13.3048,4.60087,2470.52,2022-9-30T03:30:09Z
2022-09-30T01:31:18Z,42.805,6.029,13.3047,4.60100,2470.544,2022-9-30T03:33:12Z
2022-09-30T01:34:21Z,42.805,6.029,13.3057,4.60074,2470.53,2022-9-30T03:36:15Z
2022-09-30T01:37:24Z,42.805,6.029,13.3073,4.60090,2470.53,2022-9-30T03:39:18Z
2022-09-30T01:40:28Z,42.805,6.029,13.3059,4.60095,2470.507,2022-9-30T03:42:21Z
2022-09-30T01:43:31Z,42.805,6.029,13.3048,4.60095,2470.53,2022-9-30T03:45:24Z
2022-09-30T01:46:34Z,42.805,6.029,13.3067,4.60104,2470.53,2022-9-30T03:48:28Z
2022-09-30T01:49:37Z,42.805,6.029,13.3081,4.60091,2470.53,2022-9-30T03:51:31Z
2022-09-30T01:52:40Z,42.805,6.029,13.3084,4.60098,2470.52,2022-9-30T03:54:34Z
2022-09-30T01:55:43Z,42.805,6.029,13.3031,4.60132,2470.507,2022-9-30T03:57:37Z
2022-09-30T01:58:46Z,42.805,6.029,13.3042,4.60144,2470.52,2022-9-30T04:00:40Z
2022-09-30T02:01:49Z,42.805,6.029,13.3068,4.60134,2470.52,2022-9-30T04:03:43Z
2022-09-30T02:04:53Z,42.805,6.029,13.3071,4.60123,2470.483,2022-9-30T04:06:46Z
2022-09-30T02:07:56Z,42.805,6.029,13.3070,4.60126,2470.53,2022-9-30T04:09:49Z
2022-09-30T02:10:59Z,42.805,6.029,13.3045,4.60142,2470.52,2022-9-30T04:12:53Z
2022-09-30T02:14:02Z,42.805,6.029,13.3036,4.60122,2470.544,2022-9-30T04:15:56Z
2022-09-30T02:17:05Z,42.805,6.029,13.3022,4.60122,2470.507,2022-9-30T04:18:59Z
2022-09-30T02:20:08Z,42.805,6.029,13.3033,4.60125,2470.53,2022-9-30T04:22:02Z
2022-09-30T02:23:11Z,42.805,6.029,13.3076,4.60149,2470.52,2022-9-30T04:25:05Z
2022-09-30T02:26:14Z,42.805,6.029,13.3080,4.60122,2470.483,2022-9-30T04:28:08Z
2022-09-30T02:29:18Z,42.805,6.029,13.3089,4.60129,2470.497,2022-9-30T04:31:11Z
2022-09-30T02:32:21Z,42.805,6.029,13.3027,4.60127,2470.52,2022-9-30T04:34:14Z
2022-09-30T02:35:24Z,42.805,6.029,13.3059,4.60120,2470.52,2022-9-30T04:37:17Z
2022-09-30T02:38:27Z,42.805,6.029,13.3069,4.60124,2470.52,2022-9-30T04:40:21Z
2022-09-30T02:41:30Z,42.805,6.029,13.3063,4.60127,2470.52,2022-9-30T04:43:24Z
2022-09-30T02:44:33Z,42.805,6.029,13.3046,4.60152,2470.544,2022-9-30T04:46:27Z
2022-09-30T02:47:36Z,42.805,6.029,13.3043,4.60135,2470.53,2022-9-30T04:49:30Z
2022-09-30T02:50:39Z,42.805,6.029,13.3044,4.60142,2470.567,2022-9-30T04:52:33Z
2022-09-30T02:53:43Z,42.805,6.029,13.3046,4.60140,2470.544,2022-9-30T04:55:36Z
2022-09-30T02:56:46Z,42.805,6.029,13.3024,4.60132,2470.507,2022-9-30T04:58:39Z
2022-09-30T02:59:49Z,42.805,6.029,13.3022,4.60131,2470.53,2022-9-30T05:01:42Z
2022-09-30T03:02:52Z,42.805,6.029,13.3021,4.60089,2470.52,2022-9-30T05:04:46Z
2022-09-30T03:05:55Z,42.805,6.029,13.3024,4.60123,2470.52,2022-9-30T05:07:49Z
2022-09-30T03:08:58Z,42.805,6.029,13.3034,4.60147,2470.483,2022-9-30T05:10:52Z
2022-09-30T03:12:01Z,42.805,6.029,13.3036,4.60131,2470.507,2022-9-30T05:13:55Z
2022-09-30T03:15:04Z,42.805,6.029,13.3039,4.60115,2470.483,2022-9-30T05:16:58Z
2022-09-30T03:18:08Z,42.805,6.029,13.3050,4.60141,2470.544,2022-9-30T05:20:01Z
2022-09-30T03:21:11Z,42.805,6.029,13.3046,4.60117,2470.483,2022-9-30T05:23:04Z
2022-09-30T03:24:14Z,42.805,6.029,13.3048,4.60131,2470.497,2022-9-30T05:26:07Z
2022-09-30T03:27:17Z,42.805,6.029,13.3052,4.60161,2470.52,2022-9-30T05:29:11Z
2022-09-30T03:30:20Z,42.805,6.029,13.3036,4.60137,2470.52,2022-9-30T05:32:14Z
2022-09-30T03:33:23Z,42.805,6.029,13.3041,4.60157,2470.507,2022-9-30T05:35:17Z
2022-09-30T03:36:26Z,42.805,6.029,13.3024,4.60126,2470.46,2022-9-30T05:38:20Z
2022-09-30T03:39:29Z,42.805,6.029,13.3036,4.60150,2470.52,2022-9-30T05:41:23Z
2022-09-30T03:42:32Z,42.805,6.029,13.3047,4.60141,2470.507,2022-9-30T05:44:26Z
2022-09-30T03:45:36Z,42.805,6.029,13.3039,4.60149,2470.483,2022-9-30T05:47:29Z
2022-09-30T03:48:39Z,42.805,6.029,13.3054,4.60119,2470.52,2022-9-30T05:50:32Z
2022-09-30T03:51:42Z,42.805,6.029,13.3044,4.60127,2470.52,2022-9-30T05:53:36Z
2022-09-30T03:54:45Z,42.805,6.029,13.3040,4.60106,2470.53,2022-9-30T05:56:39Z
2022-09-30T03:57:48Z,42.805,6.029,13.3061,4.60127,2470.497,2022-9-30T05:59:42Z
2022-09-30T04:00:51Z,42.805,6.029,13.3063,4.60132,2470.483,2022-9-30T06:02:45Z
2022-09-30T04:03:54Z,42.805,6.029,13.3043,4.60122,2470.544,2022-9-30T06:05:48Z
2022-09-30T04:06:57Z,42.805,6.029,13.3053,4.60120,2470.497,2022-9-30T06:08:51Z
2022-09-30T04:10:01Z,42.805,6.029,13.3054,4.60143,2470.507,2022-9-30T06:11:54Z
2022-09-30T04:13:04Z,42.805,6.029,13.3027,4.60129,2470.497,2022-9-30T06:14:57Z
2022-09-30T04:16:07Z,42.805,6.029,13.3039,4.60091,2470.507,2022-9-30T06:18:01Z
2022-09-30T04:19:10Z,42.805,6.029,13.3043,4.60108,2470.483,2022-9-30T06:21:04Z
2022-09-30T04:22:13Z,42.805,6.029,13.3028,4.60109,2470.507,2022-9-30T06:24:07Z
2022-09-30T04:25:16Z,42.805,6.029,13.3029,4.60092,2470.483,2022-9-30T06:27:10Z
2022-09-30T04:28:19Z,42.805,6.029,13.3026,4.60109,2470.497,2022-9-30T06:30:13Z
2022-09-30T04:31:22Z,42.805,6.029,13.3025,4.60137,2470.52,2022-9-30T06:33:16Z
2022-09-30T04:34:26Z,42.805,6.029,13.3041,4.60123,2470.483,2022-9-30T06:36:19Z
2022-09-30T04:37:29Z,42.805,6.029,13.3043,4.60131,2470.52,2022-9-30T06:39:22Z
2022-09-30T04:40:32Z,42.805,6.029,13.3052,4.60135,2470.52,2022-9-30T06:42:26Z
2022-09-30T04:43:35Z,42.805,6.029,13.3058,4.60122,2470.497,2022-9-30T06:45:29Z
2022-09-30T04:46:38Z,42.805,6.029,13.3052,4.60092,2470.507,2022-9-30T06:48:32Z
2022-09-30T04:49:41Z,42.805,6.029,13.3046,4.60127,2470.544,2022-9-30T06:51:35Z
2022-09-30T04:52:44Z,42.805,6.029,13.3036,4.60134,2470.52,2022-9-30T06:54:38Z
2022-09-30T04:55:47Z,42.805,6.029,13.3039,4.60119,2470.52,2022-9-30T06:57:41Z
2022-09-30T04:58:51Z,42.805,6.029,13.3024,4.60135,2470.52,2022-9-30T07:00:44Z
2022-09-30T05:01:54Z,42.805,6.029,13.3015,4.60095,2470.497,2022-9-30T07:03:47Z
2022-09-30T05:04:57Z,42.805,6.029,13.3032,4.60114,2470.483,2022-9-30T07:06:50Z
2022-09-30T05:08:00Z,42.805,6.029,13.3051,4.60108,2470.52,2022-9-30T07:09:54Z
2022-09-30T05:11:03Z,42.805,6.029,13.3051,4.60108,2470.497,2022-9-30T07:12:57Z
2022-09-30T05:14:06Z,42.805,6.029,13.3039,4.60117,2470.53,2022-9-30T07:16:00Z
2022-09-30T05:17:09Z,42.805,6.029,13.3022,4.60128,2470.507,2022-9-30T07:19:03Z
2022-09-30T05:20:12Z,42.805,6.029,13.3032,4.60117,2470.53,2022-9-30T07:22:06Z
2022-09-30T05:23:15Z,42.805,6.029,13.3036,4.60120,2470.53,2022-9-30T07:25:09Z
2022-09-30T05:26:19Z,42.805,6.029,13.3048,4.60129,2470.53,2022-9-30T07:28:12Z
2022-09-30T05:29:22Z,42.805,6.029,13.3047,4.60104,2470.52,2022-9-30T07:31:15Z
2022-09-30T05:32:25Z,42.805,6.029,13.3043,4.60120,2470.553,2022-9-30T07:34:19Z
2022-09-30T05:35:28Z,42.805,6.029,13.3027,4.60144,2470.53,2022-9-30T07:37:22Z
2022-09-30T05:38:31Z,42.805,6.029,13.3036,4.60103,2470.53,2022-9-30T07:40:25Z
2022-09-30T05:41:34Z,42.805,6.029,13.3037,4.60132,2470.567,2022-9-30T07:43:28Z
2022-09-30T05:44:37Z,42.805,6.029,13.3029,4.60092,2470.52,2022-9-30T07:46:31Z
2022-09-30T05:47:40Z,42.805,6.029,13.3034,4.60110,2470.544,2022-9-30T07:49:34Z
2022-09-30T05:50:44Z,42.805,6.029,13.3044,4.60118,2470.591,2022-9-30T07:52:37Z
2022-09-30T05:53:47Z,42.805,6.029,13.3046,4.60107,2470.53,2022-9-30T07:55:40Z
2022-09-30T05:56:50Z,42.805,6.029,13.3034,4.60119,2470.553,2022-9-30T07:58:44Z
2022-09-30T05:59:53Z,42.805,6.029,13.3039,4.60119,2470.553,2022-9-30T08:01:47Z
2022-09-30T06:02:56Z,42.805,6.029,13.3047,4.60097,2470.53,2022-9-30T08:04:50Z
2022-09-30T06:05:59Z,42.805,6.029,13.3039,4.60098,2470.53,2022-9-30T08:07:53Z
2022-09-30T06:09:02Z,42.805,6.029,13.3026,4.60098,2470.567,2022-9-30T08:10:56Z
2022-09-30T06:12:05Z,42.805,6.029,13.3033,4.60097,2470.567,2022-9-30T08:13:59Z
2022-09-30T06:15:09Z,42.805,6.029,13.3024,4.60104,2470.591,2022-9-30T08:17:02Z
2022-09-30T06:18:12Z,42.805,6.029,13.3039,4.60097,2470.553,2022-9-30T08:20:05Z
2022-09-30T06:21:15Z,42.805,6.029,13.3041,4.60127,2470.553,2022-9-30T08:23:09Z
2022-09-30T06:24:18Z,42.805,6.029,13.3045,4.60112,2470.577,2022-9-30T08:26:12Z
2022-09-30T06:27:21Z,42.805,6.029,13.3032,4.60113,2470.553,2022-9-30T08:29:15Z
2022-09-30T06:30:24Z,42.805,6.029,13.3036,4.60116,2470.577,2022-9-30T08:32:18Z
2022-09-30T06:33:27Z,42.805,6.029,13.3043,4.60114,2470.577,2022-9-30T08:35:21Z
2022-09-30T06:36:30Z,42.805,6.029,13.3035,4.60129,2470.614,2022-9-30T08:38:24Z
2022-09-30T06:39:33Z,42.805,6.029,13.3037,4.60108,2470.591,2022-9-30T08:41:27Z
2022-09-30T06:42:37Z,42.805,6.029,13.3039,4.60100,2470.553,2022-9-30T08:44:30Z
2022-09-30T06:45:40Z,42.805,6.029,13.3047,4.60104,2470.563,2022-9-30T08:47:34Z
2022-09-30T06:48:43Z,42.805,6.029,13.3019,4.60103,2470.6,2022-9-30T08:50:37Z
2022-09-30T06:51:46Z,42.805,6.029,13.3025,4.60107,2470.6,2022-9-30T08:53:40Z
2022-09-30T06:54:49Z,42.805,6.029,13.3039,4.60106,2470.6,2022-9-30T08:56:43Z
2022-09-30T06:57:52Z,42.805,6.029,13.3036,4.60107,2470.614,2022-9-30T08:59:46Z
2022-09-30T07:00:55Z,42.805,6.029,13.3021,4.60108,2470.614,2022-9-30T09:02:49Z
2022-09-30T07:03:58Z,42.805,6.029,13.3023,4.60109,2470.6,2022-9-30T09:05:52Z
2022-09-30T07:07:02Z,42.805,6.029,13.3041,4.60134,2470.624,2022-9-30T09:08:55Z
2022-09-30T07:10:05Z,42.805,6.029,13.3041,4.60130,2470.624,2022-9-30T09:11:58Z
2022-09-30T07:13:08Z,42.805,6.029,13.3036,4.60115,2470.6,2022-9-30T09:15:02Z
2022-09-30T07:16:11Z,42.805,6.029,13.3022,4.60093,2470.624,2022-9-30T09:18:05Z
2022-09-30T07:19:14Z,42.805,6.029,13.3017,4.60076,2470.624,2022-9-30T09:21:08Z
2022-09-30T07:22:17Z,42.805,6.029,13.3021,4.60081,2470.646,2022-9-30T09:24:11Z
2022-09-30T07:25:20Z,42.805,6.029,13.3018,4.60087,2470.6,2022-9-30T09:27:14Z
2022-09-30T07:28:23Z,42.805,6.029,13.3020,4.60072,2470.646,2022-9-30T09:30:17Z
2022-09-30T07:31:27Z,42.805,6.029,13.3033,4.60092,2470.67,2022-9-30T09:33:20Z
2022-09-30T07:34:30Z,42.805,6.029,13.3038,4.60122,2470.661,2022-9-30T09:36:23Z
2022-09-30T07:37:33Z,42.805,6.029,13.3036,4.60112,2470.646,2022-9-30T09:39:27Z
2022-09-30T07:40:36Z,42.805,6.029,13.3042,4.60135,2470.637,2022-9-30T09:42:30Z
2022-09-30T07:43:39Z,42.805,6.029,13.3044,4.60114,2470.624,2022-9-30T09:45:33Z
2022-09-30T07:46:42Z,42.805,6.029,13.3025,4.60126,2470.646,2022-9-30T09:48:36Z
2022-09-30T07:49:45Z,42.805,6.029,13.3044,4.60119,2470.646,2022-9-30T09:51:39Z
2022-09-30T07:52:48Z,42.805,6.029,13.3043,4.60129,2470.661,2022-9-30T09:54:42Z
2022-09-30T07:55:52Z,42.805,6.029,13.3038,4.60099,2470.684,2022-9-30T09:57:45Z
2022-09-30T07:58:55Z,42.805,6.029,13.3039,4.60121,2470.646,2022-9-30T10:00:48Z
2022-09-30T08:01:58Z,42.805,6.029,13.3036,4.60121,2470.67,2022-9-30T10:03:52Z
2022-09-30T08:05:01Z,42.805,6.029,13.3026,4.60122,2470.684,2022-9-30T10:06:55Z
2022-09-30T08:08:04Z,42.805,6.029,13.3037,4.60112,2470.684,2022-9-30T10:09:58Z
2022-09-30T08:11:07Z,42.805,6.029,13.3034,4.60117,2470.693,2022-9-30T10:13:01Z
2022-09-30T08:14:10Z,42.805,6.029,13.3032,4.60082,2470.707,2022-9-30T10:16:04Z
2022-09-30T08:17:13Z,42.805,6.029,13.3015,4.60079,2470.684,2022-9-30T10:19:07Z
2022-09-30T08:20:17Z,42.805,6.029,13.3025,4.60084,2470.67,2022-9-30T10:22:10Z
2022-09-30T08:23:20Z,42.805,6.029,13.3016,4.60071,2470.707,2022-9-30T10:25:13Z
2022-09-30T08:26:23Z,42.805,6.029,13.3022,4.60084,2470.693,2022-9-30T10:28:17Z
2022-09-30T08:29:26Z,42.805,6.029,13.3041,4.60107,2470.693,2022-9-30T10:31:20Z
2022-09-30T08:32:29Z,42.805,6.029,13.3015,4.60092,2470.707,2022-9-30T10:34:23Z
2022-09-30T08:35:32Z,42.805,6.029,13.3016,4.60075,2470.717,2022-9-30T10:37:26Z
2022-09-30T08:38:35Z,42.805,6.029,13.3020,4.60081,2470.693,2022-9-30T10:40:29Z
2022-09-30T08:41:38Z,42.805,6.029,13.3041,4.60102,2470.73,2022-9-30T10:43:32Z
2022-09-30T08:44:42Z,42.805,6.029,13.3017,4.60080,2470.693,2022-9-30T10:46:35Z
2022-09-30T08:47:45Z,42.805,6.029,13.3041,4.60117,2470.693,2022-9-30T10:49:38Z
2022-09-30T08:50:48Z,42.805,6.029,13.3046,4.60107,2470.693,2022-9-30T10:52:42Z
2022-09-30T08:53:51Z,42.805,6.029,13.3051,4.60126,2470.73,2022-9-30T10:55:45Z
2022-09-30T08:56:54Z,42.805,6.029,13.3046,4.60117,2470.73,2022-9-30T10:58:48Z
2022-09-30T08:59:57Z,42.805,6.029,13.3048,4.60141,2470.717,2022-9-30T11:01:51Z
2022-09-30T09:03:00Z,42.805,6.029,13.3039,4.60136,2470.717,2022-9-30T11:04:54Z
2022-09-30T09:06:03Z,42.805,6.029,13.3042,4.60116,2470.693,2022-9-30T11:07:57Z
2022-09-30T09:09:07Z,42.805,6.029,13.3058,4.60111,2470.707,2022-9-30T11:11:00Z
2022-09-30T09:12:10Z,42.805,6.029,13.3039,4.60131,2470.73,2022-9-30T11:14:03Z
2022-09-30T09:15:13Z,42.805,6.029,13.3055,4.60097,2470.717,2022-9-30T11:17:07Z
2022-09-30T09:18:16Z,42.805,6.029,13.3037,4.60102,2470.693,2022-9-30T11:20:10Z
2022-09-30T09:21:19Z,42.805,6.029,13.3039,4.60127,2470.74,2022-9-30T11:23:13Z
2022-09-30T09:24:22Z,42.805,6.029,13.3045,4.60126,2470.717,2022-9-30T11:26:16Z
2022-09-30T09:27:25Z,42.805,6.029,13.3049,4.60112,2470.73,2022-9-30T11:29:19Z
2022-09-30T09:30:28Z,42.805,6.029,13.3057,4.60112,2470.74,2022-9-30T11:32:22Z
2022-09-30T09:33:32Z,42.805,6.029,13.3050,4.60127,2470.74,2022-9-30T11:35:25Z
2022-09-30T09:36:35Z,42.805,6.029,13.3043,4.60156,2470.763,2022-9-30T11:38:28Z
2022-09-30T09:39:38Z,42.805,6.029,13.3068,4.60101,2470.73,2022-9-30T11:41:32Z
2022-09-30T09:42:41Z,42.805,6.029,13.3041,4.60077,2470.73,2022-9-30T11:44:35Z
2022-09-30T09:45:44Z,42.805,6.029,13.3044,4.60069,2470.73,2022-9-30T11:47:38Z
2022-09-30T09:48:47Z,42.805,6.029,13.3026,4.60096,2470.717,2022-9-30T11:50:41Z
2022-09-30T09:51:50Z,42.805,6.029,13.3039,4.60097,2470.74,2022-9-30T11:53:44Z
2022-09-30T09:54:53Z,42.805,6.029,13.3058,4.60107,2470.74,2022-9-30T11:56:47Z
2022-09-30T09:57:57Z,42.805,6.029,13.3061,4.60119,2470.73,2022-9-30T11:59:50Z
2022-09-30T10:01:00Z,42.805,6.029,13.3055,4.60087,2470.693,2022-9-30T12:02:53Z
2022-09-30T10:04:03Z,42.805,6.029,13.3044,4.60069,2470.74,2022-9-30T12:05:57Z
2022-09-30T10:07:06Z,42.805,6.029,13.3048,4.60082,2470.74,2022-9-30T12:09:00Z
2022-09-30T10:10:09Z,42.805,6.029,13.3037,4.60090,2470.717,2022-9-30T12:12:03Z
2022-09-30T10:13:12Z,42.805,6.029,13.3040,4.60095,2470.74,2022-9-30T12:15:06Z
2022-09-30T10:16:15Z,42.805,6.029,13.3026,4.60117,2470.717,2022-9-30T12:18:09Z
2022-09-30T10:19:18Z,42.805,6.029,13.3062,4.60092,2470.73,2022-9-30T12:21:12Z
2022-09-30T10:22:22Z,42.805,6.029,13.3046,4.60080,2470.717,2022-9-30T12:24:15Z
2022-09-30T10:25:25Z,42.805,6.029,13.3030,4.60088,2470.717,2022-9-30T12:27:19Z
2022-09-30T10:28:28Z,42.805,6.029,13.3028,4.60088,2470.73,2022-9-30T12:30:22Z
2022-09-30T10:31:31Z,42.805,6.029,13.3040,4.60097,2470.74,2022-9-30T12:33:25Z
2022-09-30T10:34:34Z,42.805,6.029,13.3038,4.60069,2470.73,2022-9-30T12:36:28Z
2022-09-30T10:37:37Z,42.805,6.029,13.3026,4.60089,2470.73,2022-9-30T12:39:31Z
2022-09-30T10:40:40Z,42.805,6.029,13.3018,4.60087,2470.717,2022-9-30T12:42:34Z
2022-09-30T10:43:44Z,42.805,6.029,13.3026,4.60067,2470.73,2022-9-30T12:45:37Z
2022-09-30T10:46:47Z,42.805,6.029,13.3034,4.60077,2470.73,2022-9-30T12:48:40Z
2022-09-30T10:49:50Z,42.805,6.029,13.3033,4.60079,2470.73,2022-9-30T12:51:44Z
2022-09-30T10:52:53Z,42.805,6.029,13.3041,4.60078,2470.74,2022-9-30T12:54:47Z
2022-09-30T10:55:56Z,42.805,6.029,13.3043,4.60086,2470.693,2022-9-30T12:57:50Z
2022-09-30T10:58:59Z,42.805,6.029,13.3033,4.60083,2470.754,2022-9-30T13:00:53Z
2022-09-30T11:02:02Z,42.805,6.029,13.3022,4.60079,2470.717,2022-9-30T13:03:56Z
2022-09-30T11:05:05Z,42.805,6.029,13.3026,4.60090,2470.717,2022-9-30T13:06:59Z
2022-09-30T11:08:09Z,42.805,6.029,13.3031,4.60091,2470.754,2022-9-30T13:10:02Z
2022-09-30T11:11:12Z,42.805,6.029,13.3036,4.60072,2470.693,2022-9-30T13:13:05Z
2022-09-30T11:14:15Z,42.805,6.029,13.3026,4.60092,2470.693,2022-9-30T13:16:09Z
2022-09-30T11:17:18Z,42.805,6.029,13.3039,4.60070,2470.717,2022-9-30T13:19:12Z
2022-09-30T11:20:21Z,42.805,6.029,13.3036,4.60076,2470.67,2022-9-30T13:22:15Z
2022-09-30T11:23:24Z,42.805,6.029,13.3029,4.60068,2470.763,2022-9-30T13:25:18Z
2022-09-30T11:26:27Z,42.805,6.029,13.3034,4.60092,2470.73,2022-9-30T13:28:21Z
2022-09-30T11:29:30Z,42.805,6.029,13.3026,4.60069,2470.684,2022-9-30T13:31:24Z
2022-09-30T11:32:33Z,42.805,6.029,13.3024,4.60067,2470.74,2022-9-30T13:34:27Z
2022-09-30T11:35:37Z,42.805,6.029,13.3036,4.60061,2470.717,2022-9-30T13:37:30Z
2022-09-30T11:38:40Z,42.805,6.029,13.3018,4.60083,2470.679,2022-9-30T13:40:34Z
2022-09-30T11:41:43Z,42.805,6.029,13.3022,4.60072,2470.73,2022-9-30T13:43:37Z
2022-09-30T11:44:46Z,42.805,6.029,13.3031,4.60077,2470.693,2022-9-30T13:46:40Z
2022-09-30T11:47:49Z,42.805,6.029,13.3030,4.60067,2470.67,2022-9-30T13:49:43Z
2022-09-30T11:50:52Z,42.805,6.029,13.3028,4.60067,2470.707,2022-9-30T13:52:46Z
2022-09-30T11:53:55Z,42.805,6.029,13.3033,4.60062,2470.707,2022-9-30T13:55:49Z
2022-09-30T11:56:59Z,42.805,6.029,13.3036,4.60061,2470.717,2022-9-30T13:58:52Z
2022-09-30T12:00:02Z,42.805,6.029,13.3022,4.60077,2470.717,2022-9-30T14:01:55Z
2022-09-30T12:03:05Z,42.805,6.029,13.3026,4.60087,2470.67,2022-9-30T14:04:59Z
2022-09-30T12:06:08Z,42.805,6.029,13.3036,4.60066,2470.67,2022-9-30T14:08:02Z
2022-09-30T12:09:11Z,42.805,6.029,13.3031,4.60062,2470.707,2022-9-30T14:11:05Z
2022-09-30T12:12:14Z,42.805,6.029,13.3029,4.60078,2470.707,2022-9-30T14:14:08Z
2022-09-30T12:15:17Z,42.805,6.029,13.3022,4.60070,2470.693,2022-9-30T14:17:11Z
2022-09-30T12:18:20Z,42.805,6.029,13.3030,4.60067,2470.707,2022-9-30T14:20:14Z
2022-09-30T12:21:24Z,42.805,6.029,13.3039,4.60074,2470.693,2022-9-30T14:23:17Z
2022-09-30T12:24:27Z,42.805,6.029,13.3035,4.60088,2470.693,2022-9-30T14:26:20Z
2022-09-30T12:27:30Z,42.805,6.029,13.3044,4.60066,2470.684,2022-9-30T14:29:24Z
2022-09-30T12:30:33Z,42.805,6.029,13.3035,4.60079,2470.67,2022-9-30T14:32:27Z
2022-09-30T12:33:36Z,42.805,6.029,13.3034,4.60081,2470.684,2022-9-30T14:35:30Z
2022-09-30T12:36:39Z,42.805,6.029,13.3026,4.60074,2470.67,2022-9-30T14:38:33Z
2022-09-30T12:39:42Z,42.805,6.029,13.3029,4.60070,2470.707,2022-9-30T14:41:36Z
2022-09-30T12:42:45Z,42.805,6.029,13.3034,4.60072,2470.67,2022-9-30T14:44:39Z
2022-09-30T12:45:49Z,42.805,6.029,13.3031,4.60084,2470.684,2022-9-30T14:47:42Z
2022-09-30T12:48:52Z,42.805,6.029,13.3026,4.60087,2470.646,2022-9-30T14:50:45Z
2022-09-30T12:51:55Z,42.805,6.029,13.3032,4.60072,2470.646,2022-9-30T14:53:49Z
2022-09-30T12:54:58Z,42.805,6.029,13.3031,4.60071,2470.67,2022-9-30T14:56:52Z
2022-09-30T12:58:01Z,42.805,6.029,13.3035,4.60091,2470.707,2022-9-30T14:59:55Z
2022-09-30T13:01:04Z,42.805,6.029,13.3020,4.60104,2470.693,2022-9-30T15:02:58Z
2022-09-30T13:04:07Z,42.805,6.029,13.3068,4.60095,2470.646,2022-9-30T15:06:01Z
2022-09-30T13:07:10Z,42.805,6.029,13.3029,4.60102,2470.646,2022-9-30T15:09:04Z
2022-09-30T13:10:14Z,42.805,6.029,13.3028,4.60099,2470.67,2022-9-30T15:12:07Z
2022-09-30T13:13:17Z,42.805,6.029,13.3034,4.60096,2470.661,2022-9-30T15:15:10Z
2022-09-30T13:16:20Z,42.805,6.029,13.3023,4.60082,2470.67,2022-9-30T15:18:14Z
2022-09-30T13:19:23Z,42.805,6.029,13.3023,4.60067,2470.707,2022-9-30T15:21:17Z
2022-09-30T13:22:26Z,42.805,6.029,13.3024,4.60087,2470.67,2022-9-30T15:24:20Z
2022-09-30T13:25:29Z,42.805,6.029,13.3034,4.60079,2470.637,2022-9-30T15:27:23Z
2022-09-30T13:28:32Z,42.805,6.029,13.3025,4.60092,2470.684,2022-9-30T15:30:26Z
2022-09-30T13:31:35Z,42.805,6.029,13.3020,4.60081,2470.646,2022-9-30T15:33:29Z
2022-09-30T13:34:39Z,42.805,6.029,13.3027,4.60079,2470.637,2022-9-30T15:36:32Z
2022-09-30T13:37:42Z,42.805,6.029,13.3033,4.60068,2470.661,2022-9-30T15:39:35Z
2022-09-30T13:40:45Z,42.805,6.029,13.3048,4.60087,2470.646,2022-9-30T15:42:39Z
2022-09-30T13:43:48Z,42.805,6.029,13.3055,4.60099,2470.637,2022-9-30T15:45:42Z
2022-09-30T13:46:51Z,42.805,6.029,13.3030,4.60073,2470.637,2022-9-30T15:48:45Z
2022-09-30T13:49:54Z,42.805,6.029,13.3049,4.60087,2470.646,2022-9-30T15:51:48Z
2022-09-30T13:52:57Z,42.805,6.029,13.3055,4.60074,2470.646,2022-9-30T15:54:51Z
2022-09-30T13:56:00Z,42.805,6.029,13.3034,4.60108,2470.661,2022-9-30T15:57:54Z
2022-09-30T13:59:04Z,42.805,6.029,13.3041,4.60106,2470.661,2022-9-30T16:00:57Z
2022-09-30T14:02:07Z,42.805,6.029,13.3054,4.60123,2470.624,2022-9-30T16:04:00Z
2022-09-30T14:05:10Z,42.805,6.029,13.3051,4.60110,2470.661,2022-9-30T16:07:04Z
2022-09-30T14:08:13Z,42.805,6.029,13.3063,4.60121,2470.661,2022-9-30T16:10:07Z
2022-09-30T14:11:16Z,42.805,6.029,13.3069,4.60150,2470.646,2022-9-30T16:13:10Z
2022-09-30T14:14:19Z,42.805,6.029,13.3037,4.60181,2470.646,2022-9-30T16:16:13Z
2022-09-30T14:17:22Z,42.805,6.029,13.3082,4.60140,2470.646,2022-9-30T16:19:16Z
2022-09-30T14:20:25Z,42.805,6.029,13.3062,4.60084,2470.614,2022-9-30T16:22:19Z
2022-09-30T14:23:29Z,42.805,6.029,13.3040,4.60119,2470.646,2022-9-30T16:25:22Z
2022-09-30T14:26:32Z,42.805,6.029,13.3069,4.60146,2470.624,2022-9-30T16:28:25Z
2022-09-30T14:29:35Z,42.805,6.029,13.3051,4.60150,2470.624,2022-9-30T16:31:29Z
2022-09-30T14:32:38Z,42.805,6.029,13.3053,4.60151,2470.614,2022-9-30T16:34:32Z
2022-09-30T14:35:41Z,42.805,6.029,13.3048,4.60133,2470.637,2022-9-30T16:37:35Z
2022-09-30T14:38:44Z,42.805,6.029,13.3043,4.60088,2470.661,2022-9-30T16:40:38Z
2022-09-30T14:41:47Z,42.805,6.029,13.3056,4.60125,2470.661,2022-9-30T16:43:41Z
2022-09-30T14:44:51Z,42.805,6.029,13.3050,4.60169,2470.637,2022-9-30T16:46:44Z
2022-09-30T14:47:54Z,42.805,6.029,13.3048,4.60143,2470.6,2022-9-30T16:49:47Z
2022-09-30T14:50:57Z,42.805,6.029,13.3053,4.60098,2470.614,2022-9-30T16:52:51Z
2022-09-30T14:54:00Z,42.805,6.029,13.3082,4.60102,2470.614,2022-9-30T16:55:54Z
2022-09-30T14:57:03Z,42.805,6.029,13.3030,4.60138,2470.614,2022-9-30T16:58:57Z
2022-09-30T15:00:06Z,42.805,6.029,13.3046,4.60119,2470.577,2022-9-30T17:02:00Z
2022-09-30T15:03:09Z,42.805,6.029,13.3035,4.60122,2470.577,2022-9-30T17:05:03Z
2022-09-30T15:06:12Z,42.805,6.029,13.3064,4.60137,2470.624,2022-9-30T17:08:06Z
2022-09-30T15:09:15Z,42.805,6.029,13.3066,4.60097,2470.661,2022-9-30T17:11:09Z
2022-09-30T15:12:19Z,42.805,6.029,13.3102,4.60149,2470.624,2022-9-30T17:14:12Z
2022-09-30T15:15:22Z,42.805,6.029,13.3079,4.60147,2470.624,2022-9-30T17:17:15Z